This demonstration page uses our WeatherBlox Daily Observations layout. Learn more.

Left ArrowRight Arrow

40.92945, -100.16068

Hourly Observations for April 19, 2016

Temp ( °F °C ) Dew Point ( °F °C ) Humidity (%) Winds ( mph kmh ) Pressure ( in mb ) Visibility ( mi km ) Precip ( " mm )
12:15 am 00:15 Cloudy 46 7.6 42 5.4 86 86 SW 3 6 30.27 1025 10 16 N/A
12:35 am 00:35 Cloudy 46 7.5 41 5.2 86 86 SSW 3 6 30.27 1025 10 16 N/A
12:55 am 00:55 Cloudy 44 6.9 41 5 88 88 SSE 3 6 30.24 1024 10 16 N/A
1:15 am 01:15 Cloudy 44 6.8 41 5 88 88 Calm 30.24 1024 10 16 N/A
1:35 am 01:35 Partly Cloudy 43 6.3 40 4.6 89 89 Calm 30.24 1024 10 16 N/A
1:55 am 01:55 Clear 43 6 40 4.5 90 90 Calm 30.24 1024 10 16 N/A
2:15 am 02:15 Clear 41 4.8 38 3.5 91 91 ENE 3 6 30.27 1025 10 16 N/A
2:35 am 02:35 Mostly Cloudy 39 4 37 2.9 93 93 Calm 30.27 1025 10 16 N/A
2:55 am 02:55 Cloudy 41 5.1 39 4.1 93 93 Calm 30.27 1025 10 16 N/A
3:15 am 03:15 Cloudy 42 5.4 40 4.4 93 93 ENE 3 6 30.27 1025 10 16 N/A
3:35 am 03:35 Mostly Cloudy 40 4.7 38 3.6 93 93 ENE 6 9 30.24 1024 10 16 N/A
3:55 am 03:55 Partly Cloudy 40 4.4 38 3.4 93 93 E 5 7 30.24 1024 10 16 N/A
4:15 am 04:15 Partly Cloudy 40 4.2 38 3.2 93 93 Calm 30.27 1025 7 11 N/A
4:35 am 04:35 Partly Cloudy 38 3.6 37 2.6 93 93 SW 7 11 30.27 1025 7 11 N/A
4:55 am 04:55 Cloudy 40 4.5 38 3.5 93 93 Calm 30.27 1025 7 11 N/A
5:15 am 05:15 Cloudy 40 4.5 38 3.6 94 94 Calm 30.27 1025 10 16 N/A
5:35 am 05:35 Mostly Cloudy 40 4.2 38 3.2 93 93 Calm 30.27 1025 10 16 N/A
5:55 am 05:55 Partly Cloudy 40 4.3 38 3.4 94 94 Calm 30.27 1025 7 11 N/A
6:15 am 06:15 Partly Cloudy 39 4 37 3 93 93 Calm 30.27 1025 10 16 N/A
6:35 am 06:35 Mostly Cloudy with Mist and Fog 39 3.8 37 2.9 94 94 Calm 30.27 1025 1 1 N/A
6:55 am 06:55 Mostly Cloudy with Fog 36 2.3 35 1.5 95 95 E 5 7 30.30 1026 1 1 N/A
7:15 am 07:15 Cloudy with Mist and Fog 38 3.1 36 2.3 95 95 E 6 9 30.27 1025 5 8 N/A
7:35 am 07:35 Partly Cloudy with Mist and Fog 38 3.6 37 2.9 95 95 E 3 6 30.27 1025 5 8 N/A
7:55 am 07:55 Sunny 40 4.3 38 3.5 95 95 E 3 6 30.27 1025 7 11 N/A
8:15 am 08:15 Sunny 42 5.5 40 4.6 94 94 Calm 30.24 1024 10 16 N/A
8:35 am 08:35 Sunny 44 6.7 43 5.9 95 95 E 5 7 30.24 1024 10 16 N/A
8:55 am 08:55 Sunny 47 8.1 44 6.5 90 90 SE 3 6 30.24 1024 10 16 N/A
9:15 am 09:15 Sunny 48 9 44 6.4 84 84 SSE 5 7 30.21 1023 10 16 N/A
9:35 am 09:35 Mostly Cloudy 48 9.1 44 6.6 85 85 SSE 6 9 30.21 1023 10 16 N/A
9:55 am 09:55 Mostly Cloudy 51 10.4 45 7.4 82 82 SSE 7 11 30.21 1023 10 16 N/A
10:15 am 10:15 Partly Cloudy 52 10.9 46 7.5 80 80 SSE 9 15 30.21 1023 10 16 N/A
10:35 am 10:35 Cloudy 51 10.6 44 6.6 77 77 S 13 20 30.21 1023 10 16 N/A
10:55 am 10:55 Cloudy 51 10.6 45 7 79 79 S 10 17 30.21 1023 10 16 N/A
11:15 am 11:15 Cloudy 52 11.2 45 7.1 76 76 S 13 20 30.21 1023 10 16 N/A
11:35 am 11:35 Cloudy 52 11.2 44 6.9 75 75 S 12 19 30.21 1023 10 16 N/A
11:55 am 11:55 Partly Cloudy 53 11.7 46 7.5 76 76 S 12 19 30.18 1022 10 16 N/A
12:15 pm 12:15 Mostly Cloudy 54 12.1 45 7.3 73 73 S 12 19 30.18 1022 10 16 N/A
12:35 pm 12:35 Cloudy 54 12.1 45 7 71 71 S 12 19 30.18 1022 10 16 N/A
12:55 pm 12:55 Cloudy 53 11.6 43 6.2 70 70 SSW 12 19 30.21 1023 10 16 N/A
1:15 pm 13:15 Cloudy 53 11.6 44 6.5 71 71 SW 10 17 30.15 1021 10 16 N/A
1:35 pm 13:35 Cloudy 53 11.5 43 6.2 70 70 SW 10 17 30.15 1021 10 16 N/A
1:55 pm 13:55 Cloudy 53 11.5 42 5.8 68 68 SW 10 17 30.15 1021 10 16 N/A
2:15 pm 14:15 Cloudy 53 11.4 42 5.8 69 69 SW 10 17 30.18 1022 10 16 N/A
2:35 pm 14:35 Cloudy 52 11.2 42 5.6 69 69 SSW 9 15 30.18 1022 10 16 N/A
2:55 pm 14:55 Cloudy 52 11.1 41 5.1 67 67 SW 9 15 30.18 1022 10 16 N/A
3:15 pm 15:15 Cloudy 52 11.3 41 5.1 66 66 SW 10 17 30.18 1022 10 16 N/A
3:35 pm 15:35 Mostly Cloudy 53 11.5 40 4.7 63 63 SSW 8 13 30.12 1020 10 16 N/A
3:55 pm 15:55 Mostly Cloudy 53 11.5 40 4.3 62 62 SW 9 15 30.12 1020 10 16 N/A
4:15 pm 16:15 Cloudy 52 11.3 39 4.1 62 62 SSW 7 11 30.12 1020 10 16 N/A
4:35 pm 16:35 Cloudy 53 11.5 40 4.6 63 63 SW 9 15 30.12 1020 10 16 N/A
4:55 pm 16:55 Cloudy 53 11.5 41 4.8 64 64 S 7 11 30.12 1020 10 16 N/A
5:15 pm 17:15 Mostly Cloudy 52 11.3 40 4.3 62 62 S 7 11 30.12 1020 10 16 N/A
5:35 pm 17:35 Mostly Cloudy 52 11.2 40 4.5 64 64 S 6 9 30.12 1020 10 16 N/A
5:55 pm 17:55 Mostly Cloudy 52 11 40 4.7 65 65 S 7 11 30.15 1021 10 16 N/A
6:15 pm 18:15 Cloudy 51 10.8 40 4.7 66 66 S 6 9 30.15 1021 10 16 N/A
6:35 pm 18:35 Cloudy 51 10.6 41 4.9 68 68 S 6 9 30.12 1020 10 16 N/A
6:55 pm 18:55 Cloudy 51 10.5 42 5.3 70 70 S 7 11 30.12 1020 10 16 N/A
7:15 pm 19:15 Cloudy 50 10.1 42 5.5 73 73 S 8 13 30.12 1020 10 16 N/A
7:35 pm 19:35 Cloudy 50 9.8 42 5.5 75 75 S 9 15 30.12 1020 10 16 N/A
7:55 pm 19:55 Cloudy 49 9.4 42 5.6 77 77 S 8 13 30.12 1020 10 16 N/A
8:15 pm 20:15 Cloudy 48 9 42 5.7 80 80 S 8 13 30.12 1020 10 16 N/A
8:35 pm 20:35 Cloudy with Drizzle 47 8.6 43 6 84 84 SSE 7 11 30.12 1020 10 16 N/A
8:55 pm 20:55 Cloudy with Light Rain 47 8.5 44 6.5 87 87 S 6 9 30.12 1020 10 16 N/A
9:15 pm 21:15 Cloudy with Light Rain 47 8.3 44 6.8 90 90 SSE 6 9 30.12 1020 10 16 N/A
9:35 pm 21:35 Cloudy with Light Rain 47 8.1 44 6.7 91 91 S 3 6 30.12 1020 10 16 0.01 0.25
9:55 pm 21:55 Cloudy with Drizzle 47 8.1 44 6.8 92 92 Calm 30.12 1020 10 16 0.01 0.25
10:15 pm 22:15 Cloudy with Rain 46 8 44 6.8 92 92 Calm 30.12 1020 10 16 0.01 0.25
10:35 pm 22:35 Cloudy with Drizzle 46 7.8 44 6.6 92 92 Calm 30.12 1020 10 16 0.01 0.25
10:55 pm 22:55 Cloudy 46 7.8 44 6.7 93 93 Calm 30.12 1020 10 16 0.01 0.25
11:15 pm 23:15 Cloudy 46 8 44 6.8 92 92 Calm 30.12 1020 10 16 N/A
11:35 pm 23:35 Cloudy 46 8 44 6.7 92 92 Calm 30.12 1020 10 16 N/A
11:55 pm 23:55 Cloudy 46 7.8 44 6.6 92 92 Calm 30.09 1019 10 16 N/A

Powered by AerisWeather